Location: G?dem M?dhavaram
(16.7915°N, 80.4752°E)
Time: 12:48:14
(UTC+00:00)

Daily predictions for brighter satellites

Satellite Brightness Start Highest point End
(mag) Time Altitude Azimuth Time Altitude Azimuth Time Altitude Azimuth
Skynet4D Del rocket 4.4 13:26:32 10° W 13:32:08 59° NNW 13:38:28 10° ENE
Meteor 1-12 Rocket 4.2 13:28:56 10° N 13:34:33 70° E 13:40:10 10° SSE
Cosmos 1707 2.9 13:32:49 10° S 13:36:31 51° E 13:40:11 10° NNE
OAO 2 Rocket 3.5 13:31:17 10° WNW 13:36:31 87° SSW 13:41:50 10° SE
Okean 2 4.4 13:33:45 10° SSE 13:37:15 27° E 13:40:45 10° NNE
CZ-4B R/B 3.3 13:32:16 10° SSE 13:37:48 86° ENE 13:43:26 10° NNW
CZ-4C R/B 2.9 13:38:03 10° NNE 13:41:20 57° E 13:44:41 10° S
Cosmos 1842 4.4 13:37:53 10° SSW 13:41:34 47° W 13:45:16 10° N
Cosmos 1766 3.2 13:37:54 10° N 13:41:48 78° E 13:45:41 10° S
Cosmos 2266 Rocket 4.2 13:39:42 10° N 13:45:30 48° E 13:51:20 10° SSE
In-Cosmos 22 4.1 13:43:45 10° S 13:49:03 65° E 13:54:15 10° NNE
Meteor 1-15 Rocket 4.3 13:43:33 10° N 13:49:28 78° E 13:55:21 10° S
Cosmos 405 Rocket 3.0 13:48:44 10° S 13:52:31 49° E 13:56:22 10° NNE
PKM 4.0 13:51:14 10° SSW 13:54:37 56° ESE 13:59:26 10° NE
H-2A R/B 4.2 13:55:46 11° E 13:57:16 13° ENE 13:59:11 10° NE
APEX 4.5 13:52:08 10° S 13:58:34 59° ESE 14:04:24 10° NNE
SEDSat Delta rocket 3.8 13:57:00 10° W 14:00:53 36° SSW 14:04:06 13° SSE
HJ-1C 4.2 13:59:18 10° S 14:02:22 47° W 14:05:26 10° NNW
USA 186 2.9 14:02:14 17° E 14:02:51 19° ENE 14:04:50 10° NNE
GPS 2-17 Rocket1 3.2 14:01:54 10° WSW 14:06:13 50° SSE 14:09:49 15° E
Milstar 3 4.4 14:00:30 10° SSW 14:08:00 31° SE 14:20:15 10° E
Cosmos 1655 Rocket 4.0 14:02:26 10° N 14:08:43 80° E 14:15:04 10° S
USA 276 2.2 14:06:05 10° SSW 14:08:50 40° SE 14:11:36 10° NE
Cosmos 1470 2.6 14:10:24 10° N 14:14:16 71° E 14:17:46 12° S
Cosmos 1726 4.2 14:13:08 10° NNW 14:16:12 27° W 14:19:15 10° SSW
Cosmos 2369 Rocket 4.2 14:15:35 10° NE 14:16:56 11° ENE 14:17:59 10° ENE
YAOGAN 1 4.1 14:15:10 10° SSW 14:19:07 36° W 14:23:05 10° NNW
CZ-2C R/B 2.0 14:15:20 10° NW 14:19:12 41° NNE 14:21:13 23° E
CSL-04 Rocket 3.9 14:18:01 17° SE 14:22:01 51° ENE 14:27:20 10° N
Lacrosse 4 Rocket 3.4 14:22:29 10° SW 14:26:16 31° WNW 14:29:58 10° N
deb Chang Zheng 4 3.4 14:24:15 22° SSE 14:26:53 68° ENE 14:31:01 10° N
CZ-4 R/B 3.0 14:23:39 10° SSW 14:27:29 35° W 14:31:19 10° NNW
Cosmos 2278 Rocket 4.0 14:24:22 10° NW 14:29:06 28° WSW 14:33:50 10° SSW
Ariane H10+ 2.9 14:25:06 10° WSW 14:29:34 20° SSW 14:30:26 19° S
IRS-1C Rocket 4.1 14:27:22 20° SSE 14:30:56 64° ENE 14:36:08 10° N
Cosmos 1674 4.1 14:28:34 10° SSW 14:32:05 37° W 14:35:37 10° NNW
Sich 1 Rocket 3.8 14:29:27 10° N 14:33:52 51° E 14:35:33 33° SE
Centaur AC-146 2.5 14:31:38 10° W 14:34:34 77° N 14:45:47 10° E
ARGOS Delta rocket 3.6 14:30:45 10° N 14:35:19 87° W 14:39:44 10° SSW
Hubble Space Telescope 2.8 14:32:11 10° NW 14:35:19 21° NNE 14:37:42 13° NE
SJ-6B 2.5 14:34:13 37° SSE 14:35:34 71° E 14:39:18 10° N
Resurs 01 Rocket 3.4 14:40:02 17° ENE 14:40:02 17° ENE 14:42:22 10° NNE
H-2A R/B 2.1 14:39:30 10° NNE 14:43:56 90° NNW 14:47:55 13° SSW
OBJECT-B 2.5 14:43:17 17° SW 14:44:43 25° W 14:47:08 10° NW
Intercosmos 25 3.2 14:43:52 10° N 14:47:12 64° E 14:47:42 57° SE
Atlas Centaur 2 4.1 14:49:14 10° NW 14:51:44 14° N 14:54:00 10° NNE
Okean 2 Rocket 2.9 14:48:14 10° N 14:52:37 68° E 14:53:11 60° SE
Okean-O 3.1 14:51:14 26° S 14:53:34 57° W 14:57:54 10° NNW
Cosmos 2151 Rocket 3.5 14:51:54 10° N 14:56:23 65° E 14:56:41 63° ESE
Cosmos 2297 3.6 14:51:10 10° NNW 14:56:50 73° ENE 14:58:26 48° SE
Cosmos 1437 Rocket 2.9 14:53:05 10° N 14:56:42 60° NE 14:56:42 60° NE
Delta 202 3.8 14:51:59 10° WSW 14:57:19 59° SSE 14:58:59 44° ESE
Cosmos 1553 Rocket 4.2 14:53:22 10° S 14:59:35 70° W 15:05:55 10° N
SL-08 ROCKET BODY 4.4 14:56:00 10° N 15:02:00 85° W 15:05:01 32° S
Cosmos 1758 3.8 14:58:46 10° NNW 15:02:45 57° W 15:03:37 46° SW
Ariane Rocket 4.4 15:04:25 24° NE 15:04:25 24° NE 15:07:34 10° NNE
GPS 2-14 Rocket1 3.1 15:01:12 10° W 15:05:13 55° N 15:05:26 54° N
SL-14 R/B 4.1 15:06:11 36° SW 15:07:13 46° W 15:10:56 10° N
H-2A R/B 2.9 14:38:48 10° SW 15:08:15 58° SSE 15:09:43 48° ESE
GEOS 3 Rocket 3.5 15:07:51 60° E 15:08:21 64° ENE 15:13:23 10° NNW
BREEZE-M DEB (TANK) 4.2 15:04:54 10° N 15:08:27 36° ENE 15:09:15 35° ENE
USA 267 4.1 15:06:10 10° NNE 15:12:25 51° NW 15:18:42 10° WSW
Cosmos 1943 Rocket 2.8 15:07:22 10° NNW 15:12:44 50° WSW 15:14:50 33° SSW
S3M 3.9 15:11:02 36° S 15:13:48 89° E 15:20:01 10° N
SL-08 R/B 4.4 15:18:53 10° N 15:25:11 88° E 15:26:02 69° S
IRS-1A Rocket 4.3 15:25:56 68° ENE 15:25:56 68° ENE 15:31:41 10° N
Cosmos 1607 4.2 15:21:21 10° SSW 15:27:35 67° WNW 15:33:47 10° NNE
Landsat 7 4.5 15:31:39 48° W 15:31:39 48° W 15:36:11 10° NNW
H-2A R/B 4.4 15:32:15 21° WSW 15:32:24 21° W 15:35:22 10° NW
Cosmos 1371 Rocket 4.3 15:33:34 60° N 15:33:34 60° N 15:37:50 10° N
Cosmos 883 Rocket 4.5 15:41:57 78° WSW 15:42:11 80° W 15:48:31 10° N
Okean 1 Rocket 4.5 15:38:00 10° N 15:40:40 35° NNW 15:40:40 35° NNW
CZ-2C R/B 4.3 15:55:01 10° W 15:55:03 10° W 15:55:03 10° W
Cosmos 1745 Rocket 4.3 15:53:28 10° N 15:58:40 62° NW 15:58:40 62° NW
Cosmos 2369 Rocket 3.0 15:55:34 10° NNW 15:59:47 46° WNW 15:59:47 46° WNW
ATLAS 3B CENTAUR R/B 3.5 16:02:08 10° WNW 16:15:12 67° NNE 16:16:09 64° NE
Resurs 01 Rocket 4.3 16:17:35 16° WNW 16:17:35 16° WNW 16:19:01 10° NW
Hubble Space Telescope 4.0 16:12:43 10° WNW 16:12:56 11° WNW 16:12:56 11° WNW
CENTAUR R/B 4.5 20:28:41 20° NE 20:28:41 20° NE 20:30:27 10° NNE
Cosmos 2360 Rocket 4.4 20:33:24 10° N 20:35:22 20° NNE 20:35:22 20° NNE
Cosmos 2297 Rocket 4.2 20:50:16 23° ENE 20:50:16 23° ENE 20:53:00 10° NE
ADEOS II 4.4 21:00:59 10° N 21:02:01 16° NNW 21:02:01 16° NNW
SL-16 R/B 4.0 21:24:25 26° NNW 21:24:25 26° NNW 21:27:04 10° NNW
Cosmos 2219 Rocket 3.6 21:15:58 10° N 21:21:02 33° ENE 21:23:10 25° ESE
Cosmos 1802 Rocket 4.4 21:14:50 10° N 21:20:01 59° NE 21:20:01 59° NE
Cosmos 2016 Rocket 4.3 21:20:24 10° N 21:26:03 61° ENE 21:26:03 61° ENE
USA 215 4.0 21:20:53 10° NNE 21:26:20 40° NW 21:26:20 40° NW
CZ-2C R/B 4.0 21:24:00 10° NE 21:27:00 29° ENE 21:27:00 29° ENE
ARIANE 5 R/B 4.0 21:27:31 10° NE 21:31:50 29° E 21:32:09 28° ESE
Cosmos 2333 Rocket 2.7 21:27:27 10° N 21:32:10 57° NNE 21:32:10 57° NNE
Cosmos 1898 Rocket 4.5 21:32:54 10° N 21:37:47 43° ENE 21:38:33 40° E
Cosmos 1864 Rocket 4.3 21:38:24 10° N 21:44:30 87° NNE 21:44:30 87° NNE
Cosmos 2208 Rocket 4.3 21:45:39 65° E 21:45:39 65° E 21:50:50 10° NNE
Cosmos 1570 Rocket 4.3 21:46:31 60° NNE 21:46:31 60° NNE 21:50:46 10° NNE
SWIFT 3.8 21:51:29 35° NE 21:51:29 35° NE 21:54:12 10° ENE
IRS-1C 4.3 21:46:39 10° NNE 21:51:56 65° ESE 21:52:16 63° SE
Milstar 3 Cent rocket 4.4 21:53:19 10° SE 21:53:19 10° SE 21:53:31 10° SE
Cosmos 1937 Rocket 4.2 21:53:58 10° N 21:59:01 50° ENE 22:02:56 16° SSE
MOS 1-B Rocket 4.0 21:57:49 49° SSE 21:59:40 88° WSW 22:06:36 10° NNW
Cosmos 2227 Rocket 2.0 22:00:53 77° W 22:00:57 77° WNW 22:06:37 10° NNE
Aurora 2 Rocket 3.9 22:06:15 24° NE 22:06:15 24° NE 22:08:05 10° ENE
Meteor 1-27 Rocket 4.2 22:00:19 10° N 22:05:47 57° E 22:09:42 19° SSE
Cosmos 44 Rocket 3.8 22:05:09 48° SE 22:05:48 52° ESE 22:10:32 10° NE
SL-08 R/B 4.4 22:00:11 10° NNW 22:06:28 65° W 22:07:11 60° SW
CZ-3 R/B 4.5 21:04:09 10° WNW 22:06:39 67° SW 22:20:47 10° SE
Helios 1B rocket 4.1 22:05:29 10° N 22:07:27 25° NNW 22:07:27 25° NNW
Meteor 1-20 Rocket 4.1 22:11:06 62° W 22:11:20 62° W 22:16:51 10° N
CZ-2D R/B 3.8 22:09:59 10° NNE 22:14:07 61° ESE 22:14:44 54° SE
PAYLOAD A 4.1 22:10:20 10° N 22:15:38 62° WNW 22:16:12 58° WSW
Cosmos 2219 3.2 22:18:56 53° WSW 22:19:40 57° WNW 22:25:12 10° N
COSMOS 2428 2.6 22:15:25 10° NNW 22:21:07 89° ENE 22:26:50 10° SSE
ARIANE 5 R/B 4.0 22:19:17 34° SSW 22:21:16 41° SSE 22:51:12 10° E
ARIANE 5 R/B 4.0 22:19:17 34° SSW 22:21:17 41° SSE 22:51:12 10° E
ARIANE 5 R/B 4.0 22:19:16 34° SSW 22:21:17 41° SSE 22:51:12 10° E
Cosmos 1500 Rocket 3.5 22:23:30 66° W 22:23:30 66° W 22:27:51 10° N
Cosmos 2263 Rocket 3.8 22:23:06 10° SSE 22:27:55 30° ESE 22:32:43 10° NE
FENGYUN 3A 4.5 22:24:34 10° NNW 22:29:18 32° WNW 22:29:29 32° WNW
Cosmos 2297 Rocket 3.6 22:32:05 21° WNW 22:32:05 21° WNW 22:36:12 10° NNW
IRS-P3 4.4 22:27:13 10° N 22:32:19 49° WNW 22:33:32 41° WSW
ALOS 3.2 22:28:15 10° NNW 22:32:02 31° WNW 22:32:02 31° WNW
IRIDIUM 114 4.3 22:31:44 23° S 22:35:05 88° E 22:40:18 10° N
CZ-2C R/B 4.3 22:33:27 10° NNE 22:37:04 34° E 22:40:36 11° SSE
Cosmos 2237 Rocket 3.7 22:35:03 10° N 22:40:15 38° ENE 22:45:25 10° SE
Cosmos 921 Rocket 3.8 22:37:47 17° S 22:40:59 53° E 22:45:22 10° NNE
Cosmos 2322 4.2 22:37:03 10° NW 22:42:10 36° WSW 22:43:28 32° SW
IRIDIUM 103 4.2 22:40:53 22° S 22:44:14 73° W 22:49:26 10° N
Cosmos 1315 Rocket 2.8 22:44:47 24° S 22:47:11 83° E 22:51:13 10° N
Meteor 1-5 Rocket 4.1 22:44:55 14° S 22:49:41 89° E 22:55:02 10° N
Cosmos 2098 Rocket 2.4 22:49:30 46° SW 22:50:05 54° W 22:53:06 10° N
Cosmos 1633 Rocket 4.2 22:52:16 10° SSE 22:56:25 44° E 23:00:33 10° NNE
Cosmos 220 Rocket 3.9 22:56:17 10° NNW 23:00:41 71° WSW 23:05:03 10° S
CZ-2C R/B 4.0 22:57:24 10° NNE 23:02:00 42° E 23:06:28 10° S
YAOGAN 6 2.4 23:00:00 10° N 23:03:32 69° W 23:06:04 18° SSW
Ariane H10 3.2 23:02:44 21° SW 23:03:53 24° S 23:06:38 10° SE
Cosmos 2219 Rocket 3.5 23:00:46 10° WNW 23:04:37 19° WSW 23:04:40 19° WSW
Cosmos 2228 Rocket 3.9 23:00:46 10° N 23:05:07 54° E 23:09:30 10° SSE
X-37B 0.8 23:02:45 10° NW 23:05:35 61° NE 23:08:26 10° SE
CZ-2C R/B 4.1 23:03:58 10° NW 23:05:56 13° WNW 23:06:22 13° WNW
IKONOS-2 4.4 23:03:08 10° S 23:07:21 82° WSW 23:11:36 10° NNW
Cosmos 372 Rocket 4.4 23:02:40 10° NNW 23:07:27 38° W 23:12:11 10° SSW
Cosmos 1544 3.7 23:06:55 25° SW 23:08:14 34° W 23:11:27 10° NNW
Landsat 4 3.8 23:06:17 10° NNE 23:09:59 76° ESE 23:13:41 10° S
Spot 4 Rocket 4.4 23:05:33 10° N 23:10:25 45° WNW 23:14:41 13° SW
ARIANE 5 R/B 4.0 23:07:10 10° NNW 23:10:37 19° WNW 23:12:28 16° W
Cosmos 1484 Rocket 3.8 23:07:24 10° NNW 23:10:45 28° WNW 23:12:30 20° WSW
CZ-4C R/B 4.0 23:08:51 10° SSE 23:13:02 65° ENE 23:17:21 10° N
NOSS 0 Rocket 4.0 23:08:24 10° NNW 23:14:24 57° WSW 23:20:22 10° S
Ariane H10-3 4.1 23:15:16 10° SSW 23:17:58 17° SSE 23:23:55 10° ESE
Cosmos 1666 Rocket 3.5 23:13:54 10° SSW 23:18:14 67° W 23:22:37 10° N
Tsikada Rocket 4.0 23:12:31 10° S 23:18:53 82° W 23:25:10 10° N
Cosmos 405 3.4 23:18:02 14° SSW 23:20:33 38° W 23:23:43 10° NNW
SL-08 R/B 3.4 23:21:01 10° S 23:25:41 60° WSW 23:30:28 10° NNW
BREEZE-M DEB (TANK) 3.4 23:25:36 10° WNW 23:27:39 25° SW 23:31:01 10° SSE
COSMOS 2455 3.3 23:21:54 10° NNW 23:27:51 68° ENE 23:33:48 10° SSE
Meteor 1-11 Rocket 4.3 23:22:51 10° S 23:28:44 69° E 23:34:39 10° NNE
SJ-12 3.9 23:25:29 10° NNE 23:29:35 90° ENE 23:33:43 10° SSW
NOAA 11 4.3 23:24:12 10° NNE 23:29:37 81° ESE 23:35:02 10° S
ATLAS CENTAUR R/B 1.6 23:25:39 10° SSW 23:29:58 82° ESE 23:34:38 10° NNE
Envisat 3.5 23:26:18 10° N 23:31:00 40° WNW 23:35:43 10° SW
SWIFT 2.7 23:28:01 10° WNW 23:32:08 62° N 23:36:15 10° E
Cosmos 1441 Rocket 3.3 23:28:32 10° N 23:32:29 83° E 23:36:24 10° S
Cosmos 1980 4.0 23:34:55 10° NNW 23:40:16 45° WSW 23:45:37 10° S
Cosmos 1536 2.9 23:36:33 10° S 23:40:32 85° E 23:44:33 10° N
Cosmos 1470 Rocket 3.5 23:36:31 10° S 23:40:49 85° W 23:45:07 10° N
Cosmos 2227 4.2 23:36:24 10° SSW 23:42:04 79° WNW 23:47:47 10° NNE
IUS-12 SRM-1 3.1 23:39:28 10° WSW 23:42:21 69° SSE 23:48:05 10° ENE
FALCON 9 DEB 3.8 23:40:45 10° WNW 23:43:37 29° SW 23:46:30 10° S
CZ-2C R/B 2.8 23:40:58 10° S 23:46:16 59° W 23:51:41 10° NNW
